Location: Larringes
(46.3674°N, 6.5732°E)
Time: 11:14:42
(UTC+00:00)

Daily predictions for brighter satellites

Satellite Brightness Start Highest point End
(mag) Time Altitude Azimuth Time Altitude Azimuth Time Altitude Azimuth
Nadezhda 4 Rocket 4.1 16:11:55 10° N 16:18:11 60° ENE 16:24:26 10° SSE
CZ-4B R/B 4.3 16:16:17 10° ESE 16:20:10 21° ENE 16:24:02 10° NNE
ADEOS 4.0 16:15:13 10° S 16:20:25 71° WSW 16:25:39 10° NNW
CZ-4C R/B 3.6 16:17:21 10° NNW 16:23:27 33° NNE 16:30:32 10° E
CZ-2C R/B 4.1 16:20:33 10° NE 16:23:28 15° E 16:26:21 10° ESE
Cosmos 1500 Rocket 3.9 16:19:19 10° N 16:23:36 44° ENE 16:27:49 10° SSE
CZ-4B R/B 2.8 16:22:54 10° SSE 16:26:59 73° ENE 16:30:52 10° N
SMAP 3.3 16:24:16 10° SE 16:28:43 48° ENE 16:33:11 10° N
USA 305 4.0 16:25:09 10° WNW 16:28:58 32° N 16:32:47 10° NE
CZ-2C R/B 2.9 16:25:52 10° SSE 16:30:48 86° E 16:35:36 10° NNW
Cosmos 468 Rocket 4.2 16:27:45 10° S 16:32:43 51° ESE 16:37:45 10° NNE
Cosmos 1092 Rocket 4.3 16:26:47 10° N 16:32:54 47° ENE 16:38:58 10° SSE
Cosmos 1898 Rocket 3.6 16:29:20 10° NNW 16:34:30 54° ENE 16:39:36 10° SE
Cosmos 44 3.8 16:30:13 10° NW 16:34:57 62° WSW 16:39:22 10° SSE
Cosmos 1805 Rocket 4.1 16:31:08 10° N 16:35:07 35° ENE 16:39:05 10° SE
Sich 1 3.9 16:32:01 10° NNE 16:35:45 28° ENE 16:39:28 10° SE
Cosmos 1933 4.0 16:32:29 10° SSE 16:36:10 35° E 16:39:51 10° NNE
Cosmos 1842 Rocket 3.7 16:34:20 10° S 16:38:47 84° W 16:43:18 10° N
Cosmos 2221 2.8 16:34:38 10° SSW 16:38:54 72° W 16:43:12 10° N
PSLV R/B 4.3 16:38:43 10° SE 16:42:04 34° ENE 16:45:28 10° N
SL-08 R/B 3.8 16:40:58 10° N 16:45:39 60° WNW 16:50:13 10° SSW
Cosmos 2084 3.5 16:46:48 10° NW 16:51:07 87° SW 16:55:36 10° SE
Cosmos 1656 4.2 16:46:10 10° NNW 16:51:39 63° WSW 16:57:10 10° S
deb Chang Zheng 4 4.5 16:48:17 10° ESE 16:51:53 27° ENE 16:55:30 10° N
AQUARIUS 4.1 16:47:51 10° SSE 16:52:17 68° ENE 16:56:46 10° N
FengYun 1-2 T 4.4 16:48:07 10° SSE 16:53:43 83° WSW 16:59:19 10° NNW
H-2A R/B 2.3 16:49:48 10° SE 16:54:42 45° ENE 16:59:31 10° N
Cosmos 2034 Rocket 4.1 16:49:25 10° S 16:55:35 83° W 17:01:48 10° N
NOSS 2-2 (C) 4.5 16:52:41 10° NNW 16:57:35 50° NE 17:04:20 10° ESE
ERBS 4.2 16:55:19 10° WNW 16:57:42 19° NNW 16:59:46 12° NNE
Cosmos 1666 3.8 16:55:51 10° NNE 16:58:45 21° ENE 17:01:39 10° ESE
Cosmos 2322 Rocket 3.8 16:56:06 10° N 16:59:07 14° NE 17:00:04 14° NE
USA 306 4.1 16:57:29 10° WNW 17:01:14 29° N 17:03:44 17° NE
Cosmos 1697 Rocket 2.6 16:57:25 10° NNW 17:03:04 83° ENE 17:08:41 10° SSE
USA 267 3.4 16:58:13 13° NE 17:04:12 71° NNW 17:10:42 10° WSW
Cosmos 2369 3.7 17:00:43 10° NNW 17:06:25 61° ENE 17:12:04 10° SE
Cosmos 1980 Rocket 2.4 17:01:22 10° NNW 17:06:53 50° ENE 17:12:20 10° SE
Cosmos 1763 Rocket 3.5 17:02:28 10° SSW 17:07:32 79° WNW 17:12:40 10° NNE
COSMO-SKYMED 1 3.3 17:05:08 15° NE 17:08:12 31° E 17:12:04 10° SSE
Cosmos 1939 Rocket 3.5 17:04:23 10° S 17:08:27 62° W 17:12:31 10° NNW
MOS 1-B Rocket 4.2 17:02:46 10° NNE 17:08:30 51° E 17:14:57 10° S
SL-24 R/B - RUBIN 2 3.7 17:07:15 10° NNW 17:11:44 51° NE 17:15:48 11° ESE
Meteor 1-25 Rocket 4.3 17:06:18 10° NNW 17:11:54 82° W 17:17:30 10° S
Meteor 2-21 4.4 17:06:43 10° N 17:12:48 69° E 17:18:48 10° SSE
Cosmos 841 Rocket 3.6 17:08:00 10° S 17:13:01 53° ESE 17:17:15 14° NNE
Cosmos 1812 3.3 17:11:21 10° SSE 17:14:51 34° E 17:16:32 23° NE
Cosmos 1937 Rocket 3.5 17:10:44 10° NNW 17:16:05 86° ENE 17:21:25 10° SSE
SL-16 R/B 3.4 17:12:17 10° N 17:16:35 21° NE 17:17:26 21° ENE
Cosmos 1634 Rocket 4.0 17:10:58 10° S 17:17:14 71° E 17:23:33 10° NNE
Cosmos 1633 Rocket 3.5 17:15:02 10° N 17:19:06 36° ENE 17:23:08 10° SE
USA 307 4.1 17:15:52 10° WNW 17:19:38 29° N 17:21:20 22° NE
YAOGAN 1 4.3 17:22:20 16° NNE 17:22:20 16° NNE 17:23:38 10° NNE
Cosmos 2082 Rocket 2.4 17:15:04 10° S 17:20:32 51° ESE 17:24:27 19° NE
USA 229 DEB 4.2 17:13:35 10° NW 17:20:55 72° SW 17:28:41 10° SSE
USA 229 4.2 17:13:41 10° NW 17:21:01 72° SW 17:28:47 10° SSE
Cosmos 2026 Rocket 3.9 17:18:29 10° N 17:24:40 90° WNW 17:30:44 10° S
ATLAS 2AS CENTAUR R/B 4.5 17:23:42 10° NW 17:29:16 21° N 17:33:27 13° NNE
Okean O Rocket 1.7 17:25:14 10° SSE 17:29:33 52° ENE 17:33:54 10° N
USA 276 4.2 17:27:11 10° W 17:29:50 25° SW 17:32:29 10° SSE
Cosmos 1602 4.4 17:26:37 10° NNW 17:30:25 56° W 17:34:12 10° S
Cosmos 372 Rocket 3.9 17:25:10 10° NNW 17:30:25 74° ENE 17:35:40 10° SSE
Cosmos 2278 3.8 17:25:15 10° NNW 17:30:53 55° ENE 17:36:27 10° SE
ATLAS CENTAUR R/B 4.1 17:32:34 10° NW 17:33:45 11° NNW 17:34:56 10° N
Cosmos 1151 Rocket 3.0 17:31:29 10° S 17:35:42 57° E 17:38:08 24° NNE
Cosmos 1782 2.9 17:31:47 10° SSW 17:35:46 76° W 17:39:44 10° N
Cosmos 1655 Rocket 4.4 17:31:06 10° N 17:37:06 40° ENE 17:43:02 10° SE
USA 234 3.8 17:31:37 10° SE 17:38:02 58° SW 17:44:29 10° WNW
COSMOS 2406 3.4 17:32:29 10° SSW 17:38:13 75° WNW 17:43:04 15° NNE
COSMOS 2455 2.8 17:34:01 10° SSW 17:40:02 80° ESE 17:43:55 23° NE
USA 308 4.0 17:38:29 10° WNW 17:42:13 29° N 17:42:51 28° NNE
ARGOS 3.0 17:37:50 10° SSE 17:43:14 73° ENE 17:48:39 10° N
Cosmos 1666 Rocket 3.4 17:39:35 10° N 17:44:04 80° E 17:48:28 10° SSE
Cosmos 1833 Rocket 3.4 17:39:22 10° SW 17:44:51 53° WNW 17:49:48 13° NNE
Cosmos 2180 Rocket 4.5 17:41:53 10° S 17:48:05 60° E 17:54:16 10° NNE
Meteor 2-6 Rocket 4.2 17:44:12 10° S 17:49:51 58° E 17:53:25 22° NNE
Cosmos 1328 Rocket 3.5 17:45:41 10° S 17:50:02 58° E 17:50:53 48° NE
ISS -3.8 17:46:54 10° WNW 17:50:10 78° NNW 17:50:10 78° NNW
NOSS 2-2 (D) 4.5 17:45:39 10° NW 17:50:55 81° SW 17:58:21 10° SSE
CZ-4 R/B 4.3 17:49:55 10° SSE 17:54:02 88° ENE 17:58:12 10° NNW
SKYMED 2 3.5 17:53:45 23° N 17:56:24 83° WNW 18:00:45 10° SSW
Lacrosse 5 rocket 2.3 17:53:38 10° NW 17:56:30 33° N 17:56:30 33° N
CZ-4B R/B 3.5 17:54:50 10° S 18:00:15 67° WSW 18:05:36 10° NNW
Cosmos 1570 Rocket 3.9 17:55:12 10° SSW 18:00:25 73° ESE 18:02:05 43° NE
Landsat 5 3.2 18:00:26 71° NE 18:00:46 79° ESE 18:04:46 10° S
Cosmos 2298 Rocket 4.3 17:55:38 10° NNW 18:00:27 47° NE 18:00:27 47° NE
Meteor 2-8 Rocket 4.3 17:55:07 10° S 18:01:13 72° E 18:07:23 10° NNE
ATLAS CENTAUR R/B 2.9 17:53:38 10° WSW 18:02:00 53° NW 18:03:24 38° NNE
SL-08 RB Rocket 3.6 17:58:26 10° SSE 18:03:04 79° ENE 18:07:42 10° N
GEOS 3 Rocket 3.5 18:02:08 49° ESE 18:03:23 64° NE 18:08:32 10° NW
CZ-2C R/B 2.6 17:59:22 11° N 18:04:23 77° WNW 18:09:32 10° SSW
Cosmos 540 Rocket 4.4 17:59:37 10° SW 18:04:30 45° WNW 18:08:24 16° N
Meteor 1-10 Rocket 4.2 18:02:14 10° S 18:07:54 60° E 18:09:02 50° NE
Cosmos 1814 Rocket 3.9 18:02:54 10° SSW 18:08:09 85° WNW 18:10:08 39° NNE
Meteor 1-11 Rocket 3.9 18:03:02 10° N 18:07:51 49° NE 18:07:51 49° NE
Cosmos 1818 3.5 18:03:11 10° NNW 18:08:39 61° NE 18:09:02 59° ENE
USA 305 4.1 18:05:48 10° NW 18:08:56 30° N 18:08:56 30° N
Cosmos 44 Rocket 3.5 18:07:31 10° NNW 18:11:47 55° NNE 18:11:47 55° NNE
CZ-4C R/B 2.9 18:05:35 10° NW 18:12:51 89° SW 18:20:10 15° SE
Cosmos 1900 4.4 18:14:08 10° SSW 18:18:19 60° SSE 18:18:19 60° SSE
Feng Yun 1-1 Rocket 4.3 18:13:06 10° SSE 18:19:01 87° WSW 18:24:57 10° NNW
Cosmos 2360 Rocket 3.8 18:20:02 10° N 18:22:13 20° N 18:22:13 20° N
Cosmos 2208 Rocket 4.1 18:27:47 10° SSW 18:33:10 76° WNW 18:33:46 68° NNW
H-2A R/B 4.2 18:30:03 10° SSW 18:34:19 25° W 18:38:30 10° NW
COSMO-SKYMED 1 4.5 18:42:21 20° NNW 18:44:17 28° WNW 18:47:58 10° SW
Cosmos 2322 Rocket 3.3 18:38:45 10° NNW 18:41:55 33° N 18:41:55 33° N
USA 267 4.0 18:45:34 36° N 18:46:40 39° NNW 18:52:36 10° WNW
Cosmos 1980 Rocket 4.1 18:45:52 10° NW 18:50:36 28° WSW 18:55:19 10° SSW
Cosmos 2266 Rocket 4.3 18:45:07 10° NNW 18:51:25 66° W 18:57:45 10° S
SL-16 R/B 3.1 18:55:41 10° NNW 18:59:21 42° NW 18:59:21 42° NW
Cosmos 2082 Rocket 3.8 18:59:56 10° WSW 19:04:53 30° NW 19:06:20 27° NNW
Okean O Rocket 4.3 19:03:12 10° SW 19:06:12 18° W 19:09:13 10° NW
ATLAS 2AS CENTAUR R/B 4.4 19:16:53 10° NNW 19:20:53 23° N 19:20:53 23° N
